Hourly Data Report for September 24, 2017

All times are specified in Local Standard Time (LST). Add 1 hour to adjust for Daylight Saving Time where and when it is observed.

OTTAWA INTL A
ONTARIO

45°19'00.000" N
75°40'00.000" W
114.90 m
6106001
71628
YOW

Download Data

Hourly Data (September 2017)
Hourly Data Report for September 24, 2017
Temp Definition
°C
Dew Point Temp Definition
°C
Rel Hum Definition
%
Wind Dir Definition
10's deg

Wind Spd Definition
km/h
Visibility Definition
km
Stn Press Definition
kPa
Hmdx Definition


Wind Chill Definition


Weather Definition


TIME
00:00 Legend Double Dagger 19.8 18.3 91 20 12 24.1 100.40     LegendNANA
01:00 Legend Double Dagger 19.2 18.0 92 21 8 24.1 100.41     Clear
02:00 Legend Double Dagger 18.7 17.8 94 27 14 24.1 100.39     LegendNANA
03:00 Legend Double Dagger 19.1 17.9 92 25 13 24.1 100.41     LegendNANA
04:00 Legend Double Dagger 19.2 17.9 92 25 11 24.1 100.45     Clear
05:00 Legend Double Dagger 19.8 18.4 91 28 11 24.1 100.45     LegendNANA
06:00 Legend Double Dagger 19.5 18.2 92 25 5 24.1 100.49     LegendNANA
07:00 Legend Double Dagger 20.2 19.0 92 26 6 24.1 100.54 27   Mainly Clear
08:00 Legend Double Dagger 22.9 19.8 82 27 10 24.1 100.58 30   LegendNANA
09:00 Legend Double Dagger 25.0 19.8 73 28 11 24.1 100.56 32   LegendNANA
10:00 Legend Double Dagger 26.6 20.1 67 28 10 24.1 100.54 34   Mainly Clear
11:00 Legend Double Dagger 27.5 20.4 65 30 10 24.1 100.53 35   LegendNANA
12:00 Legend Double Dagger 28.9 20.8 61 27 13 24.1 100.48 37   LegendNANA
13:00 Legend Double Dagger 30.5 21.0 56 30 12 24.1 100.44 39   Mainly Clear
14:00 Legend Double Dagger 31.4 20.9 53 27 16 24.1 100.41 40   LegendNANA
15:00 Legend Double Dagger 31.3 21.0 53 28 15 24.1 100.38 40   LegendNANA
16:00 Legend Double Dagger 30.7 21.0 55 30 21 24.1 100.36 39   Clear
17:00 Legend Double Dagger 29.9 20.5 57 28 15 24.1 100.38 38   LegendNANA
18:00 Legend Double Dagger 27.3 20.4 65 27 9 24.1 100.37 35   LegendNANA
19:00 Legend Double Dagger 26.5 20.5 69 23 7 24.1 100.40 34   Mainly Clear
20:00 Legend Double Dagger 23.7 19.9 79 23 5 24.1 100.42 31   LegendNANA
21:00 Legend Double Dagger 22.6 19.4 82 20 9 24.1 100.44 30   LegendNANA
22:00 Legend Double Dagger 22.4 19.7 85 20 8 24.1 100.45 30   Mainly Clear
23:00 Legend Double Dagger 21.5 19.4 88 21 9 24.1 100.45 29   LegendNANA

Notes on Data Quality.

Legend

  • E = Estimated
  • M = Missing
  • NA = Not Available
  • ‡ = Partner data that is not subject to review by the National Climate Archives
Date modified: